Regional Weather Roundup
Issued by NWS

Home | Current Version | Previous Version | Text Only | Print | Product List | Glossary On
Versions: 1 2 3 4 5 6 7 8 9 10 11 12 13 14 15 16 17 18 19 20 21 22 23 24 25 26 27 28 29 30 31 32 33 34 35 36 37 38 39 40 41 42 43 44 45
000
ASUS42 KFFC 260203
RWRGA
WEATHER ROUNDUP FOR GEORGIA
NATIONAL WEATHER SERVICE PEACHTREE CITY GA
900 PM EST THU DEC 25 2014

NOTE: "FAIR" INDICATES FEW OR NO CLOUDS BELOW 12,000 FEET WITH NO
SIGNIFICANT WEATHER AND/OR OBSTRUCTIONS TO VISIBILITY.

* = USE WITH CAUTION. THE STATIONS MARKED WITH AN ASTERISK MAY NOT
REPORT WEATHER SUCH AS PRECIPITATION, FOG, OR THUNDER AND ARE NOT
QUALITY CONTROLLED BY NWS.

THE REMARK "TC" DENOTES TEMPERATURE READING IN DEGREES CELSIUS.

GAZ001>058-260300-
NORTH GEORGIA

CITY           SKY/WX    TMP DP  RH WIND       PRES   REMARKS
ATLANTA        PTCLDY    44  34  67 NW5       30.25R
ATHENS         CLEAR     38  33  82 CALM      30.24R
CHAMBLEE       CLEAR     37  32  82 CALM      30.25R
PEACHTREE CITY CLEAR     36  33  89 CALM      30.26R
ROME           CLEAR     35  32  88 CALM      30.25R
WEST ATLANTA   CLEAR     37  34  89 CALM      30.26R
GAINESVILLE    CLEAR     38  33  82 W6        30.24R WCI  33
CARTERSVILLE   CLEAR     34  31  88 CALM      30.27R


CITY           SKY/WX    TMP DP  RH WIND       PRES   REMARKS
DALTON*        CLEAR     36  36 100 CALM      30.25R
MARIETTA       CLEAR     37  35  92 NW1       30.25R
KENNESAW*      CLEAR     37  32  81 W3        30.27R
$$

GAZ059>098-102>109-260300-
CENTRAL GEORGIA

CITY           SKY/WX    TMP DP  RH WIND       PRES   REMARKS
AUGUSTA-BUSH   CLEAR     37  36  96 CALM      30.26R
AUGUSTA-DANIEL CLEAR     49  38  65 W3        30.26R
COLUMBUS       CLEAR     43  37  79 CALM      30.26R
MACON          CLEAR     40  39  97 CALM      30.26R
ROBINS AFB     CLEAR     44  38  79 NW2       30.26R


CITY           SKY/WX    TMP DP  RH WIND       PRES   REMARKS
LAGRANGE*      CLEAR     37  36  97 CALM      30.26S
SYLVANIA*      CLEAR     42  42 100 CALM      30.27R
MILLEDGEVILLE* CLEAR     39  37  93 CALM      30.25S
$$

GAZ099>101-110>166-260300-
SOUTH GEORGIA

CITY           SKY/WX    TMP DP  RH WIND       PRES   REMARKS
SAVANNAH       CLEAR     44  40  85 CALM      30.27R
VALDOSTA       CLEAR     43  41  93 CALM      30.26S
ALMA           CLEAR     42  40  92 CALM      30.26R
ST SIMONS      CLEAR     46  41  82 N3        30.26R
FT STEWART     CLEAR     42  40  92 CALM      30.25R
ALBANY         CLEAR     42  39  89 CALM      30.28R
HUNTER AFB     CLEAR     43  41  92 W3        30.24S
MOODY AFB      CLEAR     44  40  87 CALM      30.26R
BRUNSWICK      CLEAR     45  43  93 NW3       30.27R


CITY           SKY/WX    TMP DP  RH WIND       PRES   REMARKS
BAINBRIDGE*    CLEAR     45  43  93 CALM      30.27S
MOULTRIE*      CLEAR     45  45 100 CALM      30.27S
VIDALIA*       CLEAR     43  41  93 CALM      30.25S
WAYCROSS*      CLEAR     47  46  94 CALM      30.27R
DOUGLAS*       CLEAR     46  43  87 CALM      30.28R
$$


USA.gov is the U.S. government's official web portal to all federal, state and local government web resources and services.